Location: Acequia del Cap
(41.7000°N, 0.6167°E)
Time: 00:13:33
(UTC+00:00)

Cosmos 2263 Rocket - Pass Details

Date: 07 August 2020
Orbit: 824 x 848 km, 71.0° (Epoch: 22 September)

Event Time Altitude Azimuth Distance (km) Brightness Sun altitude
Exits shadow 04:06:04 11° 228° (SW) 2,328 3.8 -9.5°
Maximum altitude 04:11:06 46° 300° (WNW) 1,105 2.6 -8.7°
Drops below altitude 10° 04:16:26 10° 13° (NNE) 2,431 5.3 -7.8°
Sets 04:18:59 0° 19° (NNE) 3,368 6.2 -7.4°
